Location: Caltech
(34.1382°N, 118.1253°W)
Time: 16:25:02
(UTC-07:00)

Cosmos 1939 Rocket - Visible Passes

Search period start: 22 May 2017 00:00
Search period end: 01 June 2017 00:00
Orbit: 534 x 586 km, 97.5° (Epoch: 21 May)

Date Brightness Start Highest point End Pass type
(mag) Time Alt. Az. Time Alt. Az. Time Alt. Az.
22 May 3.2 20:45:14 13° SE 20:48:29 43° ENE 20:52:09 10° N visible
23 May 3.3 20:43:59 12° SE 20:47:17 41° ENE 20:50:56 10° N visible
23 May 5.8 22:21:56 10° W 22:22:24 10° W 22:22:51 10° W visible
24 May 3.4 20:42:43 11° SE 20:46:06 40° ENE 20:49:43 10° N visible
24 May 5.7 22:20:21 10° WSW 22:21:11 11° W 22:22:01 10° W visible
25 May 3.4 20:41:27 11° SE 20:44:54 38° ENE 20:48:30 10° N visible
25 May 5.6 22:18:54 10° WSW 22:19:58 11° W 22:21:04 10° WNW visible
26 May 3.5 20:40:12 10° SE 20:43:42 37° ENE 20:47:17 10° N visible
26 May 5.6 22:17:29 10° WSW 22:18:46 11° W 22:20:02 10° WNW visible
27 May 3.5 20:38:57 10° SE 20:42:30 36° ENE 20:46:03 10° N visible
27 May 5.6 22:16:06 10° WSW 22:17:33 12° W 22:19:00 10° WNW visible
28 May 3.6 20:37:47 10° SE 20:41:17 34° ENE 20:44:49 10° N visible
28 May 5.5 22:14:44 10° WSW 22:16:20 12° W 22:17:56 10° WNW visible
29 May 3.6 20:36:37 10° SE 20:40:05 33° ENE 20:43:36 10° N visible
29 May 5.5 22:13:23 10° WSW 22:15:07 13° W 22:16:51 10° WNW visible
30 May 3.7 20:35:26 10° SE 20:38:53 32° ENE 20:42:22 10° N visible
30 May 5.5 22:12:03 10° WSW 22:13:53 13° W 22:15:46 10° WNW visible
31 May 3.7 20:34:15 10° SE 20:37:40 31° ENE 20:41:08 10° N visible
31 May 5.5 22:10:42 10° SW 22:12:40 14° W 22:14:39 10° WNW visible
